Miscellaneous Local Product
Issued by NWS Hastings, NE

Home | Current Version | Previous Version | Graphics & Text | Print | Product List | Glossary On
Versions: 1 2 3 4 5 6 7 8 9 10 11 12 13 14 15 16 17 18 19 20 21 22 23 24 25 26 27 28 29 30 31 32 33 34 35 36 37 38 39 40 41 42 43 44 45 46 47 48 49 50
059
AXUS43 KGID 300702
MISGRI

GID CWA HOURLY WEATHER ROUNDUP
NATIONAL WEATHER SERVICE HASTINGS NE
200 AM CDT FRI SEP 30 2016

NOTE: "FAIR" INDICATES FEW OR NO CLOUDS BELOW 12,000 FEET WITH NO
SIGNIFICANT WEATHER AND/OR OBSTRUCTIONS TO VISIBILITY.

...SOUTH CENTRAL NEBRASKA...

CITY           SKY/WX    TMP DP  RH WIND       PRES   REMARKS
GRAND ISLAND   CLEAR     48  44  86 SE5       30.33F
HASTINGS       CLEAR     49  42  77 CALM      30.33F
KEARNEY        CLEAR     46  41  81 E3        30.32F
ORD            CLEAR     42  37  82 CALM      30.31F
YORK           CLEAR     46  45  93 CALM      30.33F
AURORA         CLEAR     48  45  90 CALM      30.33F
LEXINGTON      CLEAR     45  41  87 E3        30.31F
HOLDREGE       CLEAR     43  40  90 CALM      30.31F
HEBRON         CLEAR     44  43  96 CALM      30.33S

...NEBRASKA PANHANDLE...

CITY           SKY/WX    TMP DP  RH WIND       PRES   REMARKS
CHADRON        PTCLDY    61  40  45 S12       30.18S
ALLIANCE       CLOUDY    52  40  63 SE15      30.23F
SCOTTSBLUFF    CLOUDY    53  42  66 E8        30.23F
SIDNEY         CLOUDY    52  40  63 SE12      30.25F

...WESTERN AND NORTH CENTRAL NEBRASKA...

CITY           SKY/WX    TMP DP  RH WIND       PRES   REMARKS
VALENTINE      CLEAR     53  42  66 S12       30.28
AINSWORTH      CLEAR     51  45  80 SE9       30.29F
ONEILL         CLEAR     48  44  86 SE5       30.33S
BROKEN BOW     CLEAR     39  38  96 CALM      30.31F
IMPERIAL       CLEAR     50  42  74 SE12      30.27F
NORTH PLATTE   CLEAR     44  40  85 E7        30.30F
MCCOOK         CLEAR     49  43  80 E5        30.30F

...EASTERN NEBRASKA...

CITY           SKY/WX    TMP DP  RH WIND       PRES   REMARKS
NORFOLK        CLEAR     46  43  89 CALM      30.34S
SO SIOUX CITY  PTCLDY    49  47  93 NW3       30.34F
TEKAMAH        PTCLDY    45  43  93 N7        30.33F
COLUMBUS       CLEAR     41  30  65 CALM      30.34S
ALBION         CLEAR     41  40  94 CALM      30.34S
OMAHA EPPLEY   CLEAR     50  45  83 N7        30.32F
OFFUTT AFB     CLEAR     50  48  93 NW8       30.30F
MILLARD        CLEAR     50  49  93 CALM      30.32F
LINCOLN        CLEAR     46  44  93 N3        30.33F
NEBRASKA CITY  CLEAR     52  44  72 N5        30.31S
BEATRICE       CLEAR     46  44  93 CALM      30.31F
FALLS CITY     CLEAR     51  47  86 NW5       30.29F

...NORTHERN KANSAS...

CITY           SKY/WX    TMP DP  RH WIND       PRES   REMARKS
GOODLAND       CLEAR     48  39  71 S12       30.26F
HILL CITY      CLEAR     46  43  89 CALM      30.32S
NORTON         SUNNY     48  41  76 SE3       30.30F
PHILLIPSBURG   CLEAR     48  45  87 NE3       30.32S
SMITH CENTER   FOG       48  45  87 CALM      30.32S VSB 1/2
BELOIT         CLEAR     45  43  93 NE3       30.31S
HAYS           CLEAR     45  36  70 CALM      30.31S
RUSSELL        CLEAR     49  45  86 SE8       30.30F
CONCORDIA      CLEAR     49  46  90 CALM      30.31F
SALINA         CLEAR     51  46  83 NW3       30.31F
TOPEKA         CLEAR     50  47  89 CALM      30.28F FOG



USA.gov is the U.S. government's official web portal to all federal, state and local government web resources and services.